User: anonymous   Login
Location: Unspecified
(0.0000°N, 0.0000°E)
Time: 09:14:39
(UTC+00:00)
Language:

Mublcom - Orbit

View from above orbital plane
View from above orbital plane
View from above satellite
View from above satellite

Ground track
Ground track

The orbit data is extracted from the following two-line orbital elements,

1 25736U 99026B   17086.84738484 +.00000316 +00000-0 +93890-4 0  9990
2 25736 097.7669 172.4044 0003822 277.9909 082.0853 14.48875802941411
Epoch (UTC): 27 March 2017 20:20:14
Eccentricity: 0.0003822
inclination: 97.7669°
perigee height: 726 km
apogee height: 732 km
right ascension of ascending node: 172.4044°
argument of perigee: 277.9909°
revolutions per day: 14.48875802
mean anomaly at epoch: 82.0853°
orbit number at epoch: 94141

The dashed part of the orbit path shows where the satellite is in the earth's shadow,  

DLR